Tracking 29030 objects as of 25-Jun-2024
HD Live streaming from Space Station
objects crossing your sky now

ONEWEB-0639

Track ONEWEB-0639 now!
10-day predictions
ONEWEB-0639 is classified as:


NORAD ID: 55803
Int'l Code: 2023-029H
Perigee: 1,190.4 km
Apogee: 1,195.4 km
Inclination: 87.9 °
Period: 109.1 minutes
Semi major axis: 7563 km
RCS: Unknown
Launch date: March 9, 2023
Source: United Kingdom (UK)
Launch site: AIR FORCE EASTERN TEST RANGE (AFETR)
Your satellite tracking list
Your tracking list is empty




NASA's NSSDC Master Catalog

Two Line Element Set (TLE):
1 55803U 23029H   24177.18021816 -.00000257  00000-0 -67439-3 0  9993
2 55803  87.9158  88.6522 0003297  62.9391 297.2078 13.19724848 64364
Source of the keplerian elements: AFSPC